Centaur D-1AR AC-48 - Orbit

View from above orbital plane
View from above orbital plane
View from above satellite
View from above satellite

Ground track
Ground track

The orbit data is extracted from the following two-line orbital elements,

1 10779U 78035B   13141.18167726 -.00000056  00000-0  17317-2 0  7660
2 10779 021.4409 227.4514 7173103 172.9208 320.3019 02.22614599285544
Epoch (UTC): 21 May 2013 04:21:36
Eccentricity: 0.7173103
inclination: 21.4409°
perigee height: 626 km
apogee height: 36170 km
right ascension of ascending node: 227.4514°
argument of perigee: 172.9208°
revolutions per day: 2.22614599
mean anomaly at epoch: 320.3019°
orbit number at epoch: 28554

The dashed part of the orbit path shows where the satellite is in the earth's shadow,  

Developed and maintained by Chris Peat, Heavens-Above GmbH. Please read the updated FAQ before sending e-mail. Imprint. DLR